DW4207 Weather Reports


Display with metric or nautical units.
time (UTC)temp
F
wind
direction
speed
MPH
gust
MPH
rain 1hr
in
rain 24hr
in
rain mn
in
humidity
%
barometer
mb
20260502163003 49 355 4.0 10.0 0.00 0.00 0.00 48 1019.6
20260502162003 48 345 4.0 12.0 0.00 0.00 0.00 52 1019.7
20260502161003 48 340 4.0 10.0 0.00 0.00 0.00 55 1019.7
20260502152003 46 354 4.0 11.0 0.00 0.00 0.00 46 1019.8
20260502151003 47 2 3.0 8.0 0.00 0.00 0.00 49 1019.8
20260502123003 40 3 2.0 6.0 0.00 0.00 0.00 63 1019.0
20260502122003 40 5 2.0 7.0 0.00 0.00 0.00 65 1018.9
20260502121003 39 9 2.0 5.0 0.00 0.00 0.00 70 1018.9
20260502115024 39 355 2.0 6.0 0.00 0.00 0.00 76 1018.9
20260502114003 39 359 0.0 3.0 0.00 0.00 0.00 82 1018.7
20260502113003 38 0 0.0 0.0 0.00 0.00 0.00 83 1018.7
20260502112024 37 0 0.0 0.0 0.00 0.00 0.00 82 1018.5
20260502111003 38 346 0.0 1.0 0.00 0.00 0.00 82 1018.5
20260502110003 38 346 0.0 2.0 0.00 0.00 0.00 83 1018.4
20260502105003 38 0 0.0 0.0 0.00 0.00 0.00 84 1018.6
20260502104003 38 0 0.0 0.0 0.00 0.01 0.00 84 1018.7
20260502103025 38 0 0.0 0.0 0.00 0.03 0.00 85 1018.7
20260502102004 38 0 0.0 0.0 0.00 0.07 0.00 86 1018.7
20260502101004 37 0 0.0 0.0 0.00 0.07 0.00 88 1018.7
20260502091004 36 0 0.0 0.0 0.00 0.08 0.00 88 1018.4
20260502071025 37 0 0.0 0.0 0.00 0.10 0.00 85 1018.3
20260502070004 37 0 0.0 0.0 0.00 0.10 0.00 85 1018.3
20260502065004 37 0 0.0 0.0 0.00 0.10 0.00 87 1018.4
20260502064025 37 0 0.0 0.0 0.00 0.10 0.00 87 1018.5
20260502063004 37 0 0.0 0.0 0.00 0.10 0.00 88 1018.5
20260502062004 37 0 0.0 0.0 0.00 0.10 0.00 88 1018.5
20260502061004 37 0 0.0 0.0 0.00 0.10 0.00 88 1018.5
20260502060004 37 0 0.0 0.0 0.00 0.10 0.00 88 1018.6
20260502055004 36 0 0.0 0.0 0.00 0.10 0.00 89 1018.6
20260502054004 36 0 0.0 0.0 0.00 0.10 0.00 88 1018.6
20260502053004 36 0 0.0 0.0 0.00 0.10 0.00 88 1018.6
20260502052004 36 0 0.0 0.0 0.00 0.10 0.00 88 1018.4
20260502051025 36 0 0.0 0.0 0.00 0.10 0.00 88 1018.4
20260502050004 36 0 0.0 0.0 0.00 0.10 0.00 88 1018.3
20260502045004 37 0 0.0 0.0 0.00 0.10 0.00 88 1018.3
20260502044025 37 0 0.0 0.0 0.00 0.10 0.00 88 1018.4
20260502043004 37 0 0.0 0.0 0.00 0.10 0.00 88 1018.3
20260502042004 37 0 0.0 0.0 0.00 0.10 0.00 89 1018.3
20260502041004 37 0 0.0 0.0 0.00 0.10 0.00 88 1018.4
20260502040005 38 0 0.0 0.0 0.00 0.10 0.00 88 1018.4
20260502035025 38 0 0.0 0.0 0.00 0.10 0.10 88 1018.5
20260502034004 38 0 0.0 0.0 0.00 0.10 0.10 87 1018.3
20260502033004 38 0 0.0 0.0 0.00 0.10 0.10 87 1018.3
20260502032004 39 0 0.0 0.0 0.00 0.10 0.10 87 1018.3
20260502031004 39 0 0.0 0.0 0.00 0.10 0.10 86 1018.4
20260502030004 40 0 0.0 0.0 0.00 0.10 0.10 85 1018.4
20260502025025 40 0 0.0 0.0 0.00 0.10 0.10 84 1018.3
20260502024004 41 0 0.0 0.0 0.00 0.10 0.10 84 1018.0
20260502023004 41 0 0.0 0.0 0.00 0.10 0.10 84 1018.0
20260502022025 41 0 0.0 0.0 0.00 0.10 0.10 84 1018.0
20260502021004 41 0 0.0 0.0 0.00 0.10 0.10 83 1017.9
20260502020004 42 0 0.0 0.0 0.00 0.10 0.10 83 1017.6
20260502015004 42 0 0.0 0.0 0.00 0.10 0.10 83 1017.5
20260502014004 42 0 0.0 0.0 0.00 0.10 0.10 80 1017.2
20260502013004 43 0 0.0 0.0 0.00 0.10 0.10 78 1017.0
20260502012004 43 0 0.0 0.0 0.00 0.10 0.10 76 1017.0
20260502011004 44 0 0.0 0.0 0.00 0.10 0.10 73 1016.6
20260502010004 45 0 0.0 0.0 0.00 0.10 0.10 71 1016.4
20260502005004 46 346 0.0 1.0 0.00 0.10 0.10 68 1016.2
20260502004005 47 355 0.0 2.0 0.00 0.10 0.10 68 1016.3
20260502003004 47 342 1.0 2.0 0.00 0.10 0.10 68 1016.2
20260502002025 47 326 0.0 4.0 0.00 0.10 0.10 67 1016.0
20260502001004 48 356 1.0 4.0 0.00 0.10 0.10 66 1015.8
20260502000004 48 351 1.0 2.0 0.00 0.10 0.10 65 1015.9
20260501235004 48 354 2.0 7.0 0.00 0.10 0.10 64 1015.9
20260501234004 49 351 3.0 5.0 0.00 0.10 0.10 64 1015.6
20260501233004 49 351 3.0 8.0 0.00 0.10 0.10 63 1015.4
20260501232004 49 344 2.0 5.0 0.00 0.10 0.10 61 1015.9
20260501231004 50 346 3.0 9.0 0.00 0.10 0.10 58 1015.3
20260501230004 50 351 3.0 8.0 0.00 0.10 0.10 59 1016.0
20260501225025 50 337 3.0 8.0 0.00 0.10 0.10 60 1016.2
20260501224004 51 353 4.0 9.0 0.00 0.10 0.10 61 1016.3
20260501223004 52 296 2.0 8.0 0.00 0.10 0.10 62 1016.3
20260501222004 52 250 2.0 9.0 0.00 0.10 0.10 59 1016.4
20260501221025 49 241 4.0 8.0 0.00 0.10 0.10 64 1016.5
20260501220004 48 228 4.0 8.0 0.00 0.10 0.10 69 1016.5
20260501215004 48 229 4.0 10.0 0.00 0.10 0.10 69 1016.6
20260501214004 49 260 4.0 12.0 0.00 0.10 0.10 63 1016.6
20260501213004 50 306 3.0 9.0 0.00 0.10 0.10 60 1016.5
20260501212004 50 328 3.0 6.0 0.00 0.10 0.10 57 1016.3
20260501211004 51 308 2.0 9.0 0.00 0.10 0.10 58 1016.1
20260501210004 51 331 3.0 8.0 0.00 0.10 0.10 57 1016.0
20260501205004 52 335 3.0 9.0 0.00 0.10 0.10 59 1016.1
20260501204004 52 325 2.0 6.0 0.00 0.10 0.10 58 1016.2
20260501203004 52 251 2.0 5.0 0.00 0.10 0.10 56 1016.2
20260501202004 51 274 2.0 4.0 0.00 0.10 0.10 60 1016.3
20260501201004 51 315 2.0 6.0 0.00 0.10 0.10 61 1016.4
20260501200025 51 329 2.0 6.0 0.00 0.10 0.10 59 1016.4
20260501195025 51 273 3.0 10.0 0.00 0.10 0.10 55 1016.4
20260501194025 52 290 3.0 9.0 0.00 0.10 0.10 58 1016.4
20260501193025 53 353 4.0 9.0 0.00 0.10 0.10 58 1016.4
20260501192025 52 347 3.0 8.0 0.00 0.10 0.10 61 1016.4
20260501191025 52 265 3.0 8.0 0.00 0.10 0.10 62 1016.4
20260501190004 54 326 3.0 8.0 0.00 0.10 0.10 62 1016.3
20260501185004 51 346 3.0 8.0 0.00 0.10 0.10 63 1016.3
20260501184004 51 343 4.0 9.0 0.00 0.10 0.10 62 1016.4
20260501183004 53 332 3.0 10.0 0.00 0.10 0.10 64 1016.2
20260501182004 50 340 3.0 8.0 0.00 0.10 0.10 60 1016.2
20260501181004 50 348 3.0 9.0 0.00 0.10 0.10 65 1016.2
20260501180004 50 3 4.0 10.0 0.00 0.10 0.10 63 1016.2
20260501175004 49 342 3.0 9.0 0.00 0.10 0.10 65 1016.2
20260501174004 50 351 4.0 10.0 0.00 0.10 0.10 65 1016.2
20260501173004 50 5 2.0 6.0 0.00 0.10 0.10 69 1016.2
20260501172004 50 303 4.0 10.0 0.00 0.10 0.10 67 1016.2
20260501171004 50 344 5.0 10.0 0.00 0.10 0.10 69 1016.1
20260501170025 49 349 4.0 13.0 0.00 0.10 0.10 66 1016.1
20260501165004 50 343 4.0 10.0 0.00 0.10 0.10 65 1016.0
20260501164004 50 352 4.0 12.0 0.00 0.10 0.10 70 1016.0